Tracking 19562 objects as of 24-Mar-2019
HD Live streaming from Space Station
objects crossing your sky now

FLOCK 3P 31

Track FLOCK 3P 31 now!
10-day predictions
FLOCK 3P 31 is classified as:


NORAD ID: 42049
Int'l Code: 2017-008DF
Perigee: 490.7 km
Apogee: 504.2 km
Inclination: 97.4 °
Period: 94.4 minutes
Semi major axis: 6868 km
RCS: Unknown
Launch date: February 15, 2017
Source: United States (US)
Launch site: SRIHARIKOTA (SRI)
aabbcc
Your satellite tracking list
Your tracking list is empty




NASA's NSSDC Master Catalog

Two Line Element Set (TLE):
1 42049U 17008DF  19082.90599308 +.00000982 +00000-0 +42021-4 0  9990
2 42049 097.4153 150.7651 0009771 090.3163 269.9195 15.25156720115351
Source of the keplerian elements: AFSPC